Home > Weather > Panipat > Past weeks

Flag for India Weather for the Past 2 Weeks in Panipat, Haryana, India

Now
77 °F

Broken clouds.


Feels Like: 79 °F
Forecast: 76 / 99 °F
Wind: 5 mph from Northeast

Location: New Delhi Palam Airport

Current Time: May 5, 2016 at 7:34:57 AM

Latest Report: May 5, 2016 at 7:00 AM


Visibility: 2 mi

Pressure: 29.80 "Hg

Humidity: 57%

Dew Point: 61 °F

Location of PanipatLocation

Historic Weather in Panipat — Graph

°F

Panipat Temperature Yesterday

Maximum temperature yesterday: 104 °F (at 12:30 PM)
Minimum temperature yesterday: 84 °F (at 2:00 AM)
Average temperature yesterday: 91 °F

High & Low Weather Summary for the Past Weeks

 TemperatureHumidityPressure
High115 °F (May 2, 2:30 PM)69% (May 5, 4:00 AM)29.83 "Hg (May 5, 4:00 AM)
Low72 °F (Apr 24, 4:30 AM)5% (May 2, 2:00 PM)29.53 "Hg (Apr 22, 4:30 PM)
Average92 °F19%29.69 "Hg
* Reported Apr 20 6:30 AM — May 5 6:30 AM, Panipat, Weather by CustomWeather, © 2016

Note: Actual official high and low records may vary slightly from our data, if they occured in-between our weather recording intervals... More about our weather records

Advertising

Panipat Weather History for the Previous 24 Hours

Scroll right to see more
 ConditionsComfort  
Time TempWeatherWind HumidityBarometerVisibility
6:30 AM
Thu, May 5
75 °FBroken clouds.6 mph61%29.80 "Hg2 mi
6:00 AM75 °FPartly cloudy.8 mph65%29.77 "Hg2 mi
5:30 AM75 °FPartly cloudy.6 mph65%29.74 "Hg2 mi
5:00 AM73 °FThunderstorms. Partly cloudy.8 mph65%29.74 "Hg2 mi
4:30 AM72 °FThunderstorms. Partly cloudy.10 mph69%29.74 "Hg2 mi
4:00 AM73 °FThunderstorms. Partly cloudy.14 mph69%29.74 "Hg2 mi
3:00 AM82 °FThunderstorms. Partly cloudy.9 mph51%29.68 "Hg2 mi
2:30 AM82 °FPartly cloudy.9 mph51%29.68 "HgN/A
2:00 AM82 °FThunderstorms. Partly cloudy.9 mph51%29.68 "Hg2 mi
1:30 AM84 °FThunderstorms. Partly cloudy.13 mph37%29.71 "Hg2 mi
1:00 AM84 °FPassing clouds.15 mph35%29.71 "Hg2 mi
12:30 AM86 °FPassing clouds.15 mph31%29.71 "Hg2 mi
12:00 AM86 °FPassing clouds.5 mph31%29.71 "Hg2 mi
11:30 PM
Wed, May 4
86 °FPassing clouds.6 mph31%29.71 "Hg2 mi
11:00 PM86 °FPassing clouds.6 mph31%29.71 "Hg2 mi
10:30 PM86 °FPassing clouds.5 mph31%29.71 "Hg2 mi
10:00 PM86 °FPassing clouds.5 mph31%29.68 "Hg2 mi
9:30 PM86 °FPassing clouds.5 mph31%29.68 "Hg2 mi
9:00 PM86 °FPassing clouds.5 mph31%29.65 "Hg2 mi
8:30 PM88 °FPassing clouds.7 mph29%29.65 "Hg2 mi
8:00 PM90 °FPassing clouds.8 mph26%29.65 "Hg2 mi
7:30 PM90 °FPartly cloudy.7 mph27%29.65 "Hg2 mi
7:00 PM90 °FBroken clouds.8 mph27%29.65 "Hg2 mi
6:30 PM90 °FMostly cloudy.9 mph29%29.65 "Hg2 mi
6:00 PM90 °FMostly cloudy.9 mph31%29.65 "Hg1 mi
5:30 PM90 °FMostly cloudy.9 mph31%29.65 "Hg1 mi
5:00 PM93 °FMostly cloudy.8 mph26%29.65 "Hg1 mi
4:30 PM99 °FMostly cloudy.7 mph16%29.65 "Hg2 mi
4:00 PM97 °FMostly cloudy.6 mph17%29.65 "Hg2 mi
3:30 PM95 °FThunderstorms. Mostly cloudy.8 mph16%29.62 "Hg2 mi
3:00 PM95 °FThunderstorms. Mostly cloudy.17 mph15%29.65 "Hg2 mi
2:30 PM97 °FMostly cloudy.12 mph22%29.68 "Hg1 mi
1:30 PM104 °FScattered clouds.5 mph15%29.68 "Hg2 mi
1:00 PM104 °FScattered clouds.5 mph15%29.68 "Hg2 mi
12:30 PM104 °FScattered clouds.6 mph15%29.68 "Hg2 mi
12:00 PM100 °FScattered clouds.7 mph20%29.71 "Hg2 mi
11:30 AM99 °FScattered clouds.9 mph22%29.74 "Hg2 mi
11:00 AM99 °FScattered clouds.9 mph22%29.74 "Hg2 mi
10:30 AM97 °FScattered clouds.9 mph23%29.74 "Hg2 mi
10:00 AM97 °FScattered clouds.9 mph23%29.74 "Hg2 mi
9:30 AM95 °FScattered clouds.9 mph25%29.74 "Hg2 mi
9:00 AM95 °FScattered clouds.14 mph26%29.74 "Hg2 mi
8:30 AM91 °FScattered clouds.5 mph28%29.71 "Hg2 mi
8:00 AM90 °FScattered clouds.7 mph29%29.71 "Hg2 mi
7:30 AM88 °FScattered clouds.8 mph35%29.71 "Hg2 mi
7:00 AM86 °FScattered clouds.7 mph38%29.68 "Hg1 mi
Weather by CustomWeather, © 2016

See weather overviewHow to use our weather pages